CAPE
2175 2392 2590 2698 2121 1729 1606 1930 2323 2807 2923 2473 2466 2641 3126 2717 3218 2747 2340 2904 2406 2001 2068 2290 2034 1838 1909 2214 2109 2387 2307 2506 1934 1867 2454 3027 3091 3232 3779 3635 3620 3451 2860 3075 2547 2232 2242 2147 2266 2394 2446 2199 1936 1797 1786 1889 1682 1324 1453 1579 1807 1833 1875 1882 1763 1770 1703 1689 1681 1537 1452 1492 1561 1501 1448 1441 1426 1346 1307 1308 1362 1398 1376 1347 1349
2349 2139 2427 2647 2220 2061 1945 2003 2292 2639 2562 2360 3110 2272 2616 2629 2392 2249 2794 2622 2709 2437 2764 2250 2096 1454 1654 1380 1951 2242 2532 2234 1923 2055 2700 3104 2961 2950 3671 3721 3691 3470 3134 3129 2671 2556 2505 2413 2350 2282 2017 2006 1861 2128 1926 1647 1614 1253 1353 1126 1200 1704 1728 1700 1752 1876 1900 1786 1826 1824 1661 1624 1591 1522 1466 1486 1442 1476 1418 1418 1386 1399 1482 1424 1492
2020 2397 2143 2576 2742 1943 1901 2832 2962 2938 2879 2327 3474 2844 2771 2098 2225 3094 2438 2390 2191 2229 2409 1876 1497 884 815 1247 1457 1878 1795 2107 1703 1735 2021 2737 2875 2851 3856 3729 3634 3622 3289 3188 2940 2623 2724 2670 2604 2133 1980 1759 1566 1552 1756 1800 1726 1305 1370 1160 1096 1184 1261 1617 1931 1640 1760 1899 1865 1857 1909 1819 1737 1639 1520 1490 1472 1537 1562 1488 1412 1396 1438 1501 1479
2897 3276 2363 2944 3070 2943 2496 2374 2760 2756 3098 2869 3148 2906 2797 2775 2945 2514 2381 2197 1744 1782 1726 1473 1021 794 0 310 1132 1397 1251 1838 1859 1728 1521 1572 2364 3155 3332 3717 3738 3648 3571 3386 3149 2905 2790 2751 2708 2412 1918 1766 1739 1467 1479 1445 1563 1552 1401 1492 1427 1325 1211 1271 1510 1794 1824 1684 1818 1825 1827 1878 1834 1785 1707 1599 1580 1583 1607 1657 1611 1606 1606 1564 1464
3149 3209 3999 2726 3034 2825 2546 2740 2858 2186 2710 2880 2736 3179 3314 2614 3042 2822 2702 2193 2149 1875 1544 1047 887 61 0 0 53 779 1376 1450 1379 1658 1592 1997 2779 3145 2843 3612 3574 3813 3669 3505 3402 3228 3029 2936 2817 2410 2143 1753 1828 1646 1414 1484 1380 1374 1337 1550 1570 1538 1396 1372 1209 1381 1570 1809 1791 1824 1752 1773 1882 1892 1762 1761 1695 1680 1544 1613 1746 1636 1641 1626 1538
3638 4006 3256 2894 2893 2666 2753 2779 2950 3014 3127 3092 2649 2972 2882 2336 2345 2622 2956 3164 1807 1129 1251 345 118 0 0 0 0 73 711 1133 1226 1634 1744 2169 2691 3027 2920 3087 3363 3410 3601 3602 3412 3288 3178 3059 2934 2632 2463 2149 1734 1507 1553 1539 1594 1434 1282 1541 1715 1674 1640 1488 1294 1317 1274 1499 1792 1824 1875 1752 1794 1883 1931 1906 1816 1790 1742 1791 1777 1790 1731 1684 1606
3552 3780 3522 3133 2939 3284 2738 2739 2752 3466 2867 2357 1972 2416 2914 2661 2585 1822 1419 1333 741 284 175 110 23 11 64 591 106 86 0 0 307 1313 1642 1594 1905 2229 3010 2980 3203 3002 3441 3484 3459 3460 3344 3266 3092 2543 2592 2128 2052 1805 1689 1691 1636 1540 1506 1539 1445 1775 1781 1374 1498 1374 1382 1437 1536 1652 1770 1609 1706 1775 1904 1885 1905 1913 1813 1792 1760 1834 1893 1889 1864
3358 3505 3628 3278 3089 3314 3207 3150 3255 3055 2283 2871 2808 2566 2714 2115 1730 1350 941 572 138 2 168 108 346 435 454 212 120 1054 673 259 323 525 1420 1754 1852 1992 2518 2862 3037 2448 2957 2402 2637 3486 3570 3428 2808 2606 2209 2047 1980 1954 1768 1736 1610 1450 1454 1668 1816 1852 1866 1732 1712 1716 1551 1372 1447 1526 1541 1611 1684 1598 1762 1771 1881 1867 1908 1909 1829 1812 1958 2017 1957
3546 3654 3574 3675 3229 3144 2776 2748 2885 3124 2905 2906 2810 2716 2331 1736 1653 2158 515 428 65 303 538 507 610 581 286 149 394 568 371 529 922 1094 1531 1175 1427 1950 2005 2592 2881 2593 2550 1480 2236 2478 3611 3600 2414 2382 2426 2304 2059 1776 1803 1774 1437 1506 1365 1475 1644 1921 1979 1823 1666 1650 1473 1557 1399 1470 1500 1539 1642 1738 1603 1574 1624 1710 1741 1826 1982 1903 1947 2028 2065
3541 3867 3733 3632 3122 2452 2675 2918 2962 2941 2320 2385 2560 2320 991 846 651 378 266 52 476 410 514 526 512 527 546 319 581 644 762 761 812 1529 498 1354 1625 1646 2066 2304 2613 2257 1939 2254 1674 1603 2950 3555 2653 2482 2360 2231 2058 2147 2020 1983 1936 1702 1589 1679 1817 1854 1696 1654 1770 1784 1685 1625 1765 1692 1513 1606 1670 1694 1779 1802 1689 1499 1379 1499 1753 1602 1540 1788 2034
3640 3938 3746 4136 3020 2792 2720 3014 2852 2926 2182 1969 1542 1462 1014 402 17 99 508 954 588 500 584 470 705 774 854 557 914 593 781 1608 797 625 282 1311 2240 1946 1919 1474 1741 1842 1768 2188 2226 2723 3127 3295 2924 2456 2469 2287 2435 2340 2161 1956 2038 1846 1640 1637 1653 1711 1780 1930 1953 1905 1762 1763 1718 1780 1732 1853 1814 1714 1731 1838 1975 1937 1638 1428 1510 1523 1643 1560 1697
3586 3933 4001 3509 2957 2501 2537 2727 2606 2082 1469 978 431 326 348 123 160 9 20 663 686 1251 462 428 488 792 1540 1372 1505 1056 791 897 733 640 1050 820 1031 918 1276 1232 1304 1249 1832 2215 2359 2438 2656 2684 2816 2121 2132 2160 2319 2089 2012 1876 1942 1688 1592 1701 1682 1650 1692 1961 1724 1866 1799 1811 1784 1651 1668 1702 1658 1776 1796 1779 1796 1881 1889 1817 1590 1891 1860 1615 1554
3584 3892 3744 3821 3047 2612 2416 2378 2209 1979 1838 558 223 218 2 0 0 589 794 544 563 905 429 374 675 429 763 789 751 897 1648 1088 778 567 467 895 1123 758 1285 1244 1147 1349 1665 1970 2418 2304 2137 2012 2093 1760 1800 2106 2162 2133 2058 1850 1488 1466 1425 1712 1758 1741 1824 1695 1684 1659 1618 1723 1773 1838 1765 1687 1700 1776 1773 1755 1794 1802 1868 1953 1965 1974 1908 1760 1892
3783 4170 3582 2805 2903 2503 1707 2072 1651 1207 807 621 300 578 148 13 673 906 633 326 114 457 552 196 540 459 465 1360 798 486 1309 1110 692 574 255 186 645 413 417 201 228 220 1426 1682 1877 1762 1677 1824 1916 1903 1665 1674 1683 1686 1764 1621 1468 1471 1494 1612 1697 1707 1760 1594 1632 1748 1797 1818 1670 1628 1673 1795 1825 1808 1815 1767 1694 1652 1750 1855 1919 1950 2018 2029 2000
3850 4096 3419 2723 2159 1876 1409 1298 1156 775 389 691 449 129 417 610 398 189 424 1040 683 775 334 236 264 608 977 520 898 548 1025 1126 1016 824 142 7 2 0 2 0 12 126 706 1064 961 1008 1272 1409 1544 1602 1459 1083 1182 1380 1567 1889 1610 1556 1427 1434 1389 1604 1735 1667 1758 1752 1712 1787 1607 1692 1624 1706 1769 1777 1793 1787 1752 1699 1697 1860 1943 1963 2004 2046 2052
3269 3716 3328 2578 2088 1445 1642 1358 882 1320 793 95 578 461 720 1 37 1271 313 290 471 697 998 345 240 623 274 507 237 588 513 462 352 112 13 18 0 0 0 0 0 0 0 136 344 261 358 484 1464 1580 1383 1051 1221 1321 1563 1650 1697 1270 1217 1094 1120 1091 1097 1158 1274 1298 1360 1332 1556 1670 1679 1720 1691 1709 1686 1661 1758 1769 1774 1754 1790 1956 2037 2107 2120
2922 3156 2992 2283 2051 1486 1720 1298 1072 981 634 436 644 483 74 28 275 1052 105 543 262 516 658 485 281 375 213 518 519 484 391 516 483 300 420 10 0 0 84 0 0 0 0 81 123 50 155 154 695 1452 1390 1321 1170 1294 1302 999 470 870 460 356 121 104 267 456 739 885 886 938 899 878 1008 1272 1434 1565 1631 1592 1530 1643 1706 1752 1751 1782 1903 1937 2052
3066 2642 2889 2128 1646 1762 1638 934 991 636 1 1 0 380 811 295 226 213 182 573 219 875 350 873 799 1801 180 24 98 163 264 280 418 202 601 563 9 0 0 0 0 63 0 4 199 112 185 25 8 785 1146 1210 1215 1220 1072 77 562 11 5 98 31 23 36 43 164 401 448 434 376 418 548 672 799 923 1048 1237 1102 1341 1722 1809 1862 1846 1894 1895 1904
3032 2901 2499 1924 1744 1931 1223 1006 1027 671 1224 1556 1086 359 73 0 395 1056 835 1779 590 450 507 270 613 742 242 278 1153 443 179 180 199 574 76 40 147 0 0 0 0 0 30 0 4 48 22 47 0 0 802 869 916 921 1 3 160 186 183 105 27 4 19 27 68 139 150 97 89 134 212 231 262 330 474 671 856 999 1148 1358 1495 1692 1804 1893 1897
2980 2641 2110 1726 1687 1827 1278 1244 830 2 233 207 235 153 207 986 799 574 417 557 669 574 133 488 542 64 773 2 662 643 432 135 160 161 70 95 34 46 1 0 0 0 0 0 0 0 0 0 0 0 0 10 13 0 0 0 0 37 177 71 34 0 1 16 55 123 74 95 93 68 127 184 164 187 198 260 358 410 498 645 818 1026 1368 1574 1817
2532 2206 2032 1672 1968 1544 1195 1046 790 380 483 294 368 572 1036 412 396 436 584 334 618 1106 525 292 9 24 77 93 274 22 158 97 8 94 44 6 0 39 15 0 0 0 0 0 0 0 0 0 0 26 0 0 0 0 0 0 0 0 152 108 60 1 0 0 0 39 4 2 67 58 108 156 163 203 228 222 262 272 297 336 409 471 602 794 1096
2221 2054 1830 1549 1818 1535 916 580 273 171 258 86 80 920 287 422 440 312 323 356 930 423 599 514 279 158 0 18 180 491 71 350 178 5 41 106 0 0 0 5 0 0 23 0 0 0 0 0 5 0 0 0 0 0 0 0 0 0 146 130 59 48 0 0 0 0 0 0 0 8 64 73 142 199 201 195 221 251 279 298 294 352 383 467 588
2196 1888 1659 1829 1705 1337 701 408 200 600 376 68 596 68 183 402 376 636 653 426 334 420 907 351 73 23 0 28 20 27 347 10 69 21 34 43 4 11 13 5 0 0 2 63 15 0 0 0 0 0 0 0 0 0 0 0 163 26 276 141 196 32 77 31 2 0 0 0 0 0 0 5 50 112 164 173 153 172 185 199 195 182 247 276 282
2081 1782 1741 1734 1496 1042 622 424 283 571 102 0 929 10 74 306 489 629 458 358 210 461 386 0 272 1 88 0 1 37 395 6 274 332 1 7 0 12 1 0 48 30 27 65 7 0 0 0 0 0 0 0 0 8 0 10 38 332 490 505 547 330 292 127 122 25 0 0 0 0 0 0 5 18 24 55 46 57 50 47 64 51 84 138 141
1969 1735 1688 1633 1186 717 544 267 280 472 376 217 574 434 83 180 614 577 365 532 400 567 367 423 463 55 267 4 1 2 152 396 38 121 701 62 3 9 16 0 0 0 201 69 2 18 0 0 0 0 140 2 148 44 0 0 363 1224 444 770 562 668 374 490 400 224 92 45 22 3 0 0 0 12 10 8 36 17 23 4 0 10 7 18 20
2051 1906 1636 1197 918 705 681 236 246 543 336 328 664 691 505 16 719 293 330 392 627 321 236 247 275 226 391 72 240 394 77 243 21 0 69 58 6 0 46 20 17 2 8 39 144 0 12 2 0 0 0 57 0 0 107 1 364 1314 557 54 362 266 457 385 380 185 182 216 95 103 40 2 0 0 29 39 20 34 45 14 6 0 0 0 0
2150 1727 1507 1226 990 606 799 437 251 546 700 348 511 732 502 656 492 434 487 452 289 472 299 286 416 332 240 80 207 134 710 302 58 4 27 28 84 106 0 2 5 7 48 710 372 40 1 30 83 16 142 74 0 7 137 38 245 1587 671 378 14 239 207 302 189 208 181 181 193 311 186 77 61 48 15 22 61 33 4 25 18 0 1 0 0
2108 1821 1490 1176 793 476 788 711 483 291 978 492 494 410 556 485 465 451 442 777 363 472 432 356 526 445 143 283 223 126 332 181 20 230 81 96 38 440 46 0 0 0 0 6 18 47 51 24 39 472 754 164 188 135 381 260 519 1318 736 97 17 78 200 173 175 218 234 233 220 178 169 260 225 185 76 66 87 67 54 29 46 46 6 0 0
1917 1776 1486 1141 767 544 416 741 640 287 776 734 678 336 327 171 452 295 130 677 443 331 519 288 254 381 422 366 266 181 232 453 544 295 149 188 173 122 26 14 8 0 0 0 0 0 13 100 0 12 233 571 28 206 359 24 137 672 342 292 80 12 63 116 154 228 288 267 196 142 88 54 22 52 247 249 124 181 44 54 76 53 25 13 3
1910 1548 1484 1142 830 1048 534 510 773 656 465 913 738 531 362 134 208 382 287 459 535 426 497 355 401 459 606 381 327 258 254 388 152 298 448 224 322 318 277 177 130 59 0 17 0 2 19 7 22 12 1 84 317 139 60 112 296 834 106 20 57 51 79 47 54 115 185 226 171 80 53 50 37 7 0 0 2 32 232 240 158 183 152 76 30
1989 1347 1532 1247 942 808 736 668 572 772 680 708 752 648 408 204 222 315 477 360 680 597 530 456 473 450 483 478 367 256 296 234 332 394 341 353 325 355 302 387 358 30 45 75 80 2 17 5 36 127 49 1 0 94 284 118 311 730 241 103 73 133 219 85 72 99 143 132 87 42 2 0 0 0 0 0 0 0 38 145 190 222 164 137 114
1852 1327 1343 1053 873 834 790 733 550 609 852 651 731 599 572 336 224 298 364 516 518 812 568 626 625 564 472 275 368 288 372 308 285 365 267 390 343 358 456 524 560 503 131 116 92 52 61 152 99 56 70 88 18 22 4 34 326 988 173 97 191 686 588 180 222 192 118 79 57 32 0 0 0 0 0 0 0 16 86 26 10 3 15 133 157
1984 1551 1180 1163 974 843 764 721 650 605 806 770 676 546 692 431 201 283 333 535 462 650 601 524 471 279 350 385 324 320 456 343 364 421 529 588 644 655 634 577 557 622 540 389 173 131 72 132 127 134 101 91 28 4 9 116 173 115 292 70 100 166 118 59 66 167 210 126 52 27 10 0 0 0 0 1 19 81 128 218 14 0 0 0 0
2049 1740 1444 1215 1066 941 784 726 658 617 726 819 696 569 524 643 368 368 342 515 515 330 694 551 365 335 355 356 255 405 403 310 360 435 503 401 455 395 703 839 757 695 609 474 219 160 120 24 140 77 158 139 47 54 7 0 0 75 66 52 140 135 80 38 28 45 152 164 63 4 0 0 0 0 0 0 16 42 54 54 18 0 0 0 0
2188 1913 1611 1388 1242 1160 926 816 691 614 759 789 768 640 527 574 592 556 477 455 393 323 358 338 512 542 643 539 329 384 652 502 577 655 674 583 273 381 530 691 705 691 680 588 181 110 82 14 8 58 114 117 98 43 164 216 183 88 26 18 66 130 181 50 0 0 1 3 0 0 0 0 0 0 0 0 0 0 0 0 0 0 0 0 0
2335 2038 1754 1556 1428 1299 1044 903 775 647 726 790 788 710 613 612 596 622 581 581 511 300 278 216 215 307 469 469 373 362 451 308 319 345 370 257 287 292 471 492 553 513 118 206 154 68 7 12 0 59 39 72 38 51 62 154 58 29 13 6 24 64 25 32 30 4 0 0 0 0 0 0 0 0 0 0 0 0 0 0 0 0 0 0 0
2540 2267 1983 1754 1574 1364 1117 863 780 718 744 760 796 726 713 718 667 627 642 566 618 462 279 252 569 333 387 403 406 449 321 358 344 293 337 335 302 396 570 447 301 224 380 303 173 134 82 54 14 6 45 66 60 81 97 76 46 33 13 14 27 4 0 0 0 28 1 0 0 0 0 0 0 0 0 0 0 0 0 0 0 0 0 0 0
2655 2431 2206 1960 1734 1476 1229 974 740 711 801 802 779 795 758 758 758 689 646 605 492 664 396 266 400 377 367 466 501 484 456 462 481 541 576 581 579 505 576 618 659 532 383 257 187 125 109 57 25 28 28 74 28 44 69 121 64 31 16 5 7 95 176 141 98 132 114 43 3 2 1 0 0 1 0 0 0 0 0 0 0 0 0 0 0
2706 2543 2328 2067 1854 1635 1357 1103 868 675 776 856 760 763 901 815 755 740 599 570 487 331 636 510 392 402 378 406 420 454 524 562 606 625 576 522 540 636 677 674 683 722 695 620 357 242 182 140 64 43 34 11 20 23 3 71 136 73 55 19 13 0 1 0 0 0 5 36 25 23 11 4 0 0 0 0 0 0 0 0 0 0 0 0 0
2747 2596 2371 2169 1968 1782 1582 1324 1077 799 722 836 786 709 808 823 770 706 676 291 447 327 366 357 378 505 619 684 756 774 749 769 761 795 816 810 805 853 872 874 843 781 719 655 572 454 501 441 239 229 62 62 63 49 140 81 54 19 98 111 46 14 0 5 28 24 10 61 34 38 64 39 6 3 0 0 0 0 0 0 0 0 0 0 0
2752 2619 2496 2260 2091 1925 1754 1559 1299 996 743 753 736 627 427 759 794 750 670 575 353 389 350 364 466 508 633 738 783 792 862 1174 862 798 819 812 768 763 814 896 904 845 785 732 704 641 570 536 505 531 444 401 27 16 12 12 8 14 4 133 167 70 14 1 1 50 161 126 10 3 41 101 51 2 0 0 6 51 50 64 21 33 7 0 0
2794 2665 2534 2412 2222 2024 1852 1673 1470 1216 906 711 696 366 443 480 713 683 619 556 358 360 398 368 510 572 607 692 819 1407 1488 1738 1434 1024 960 929 853 758 737 858 944 941 879 846 813 770 706 640 598 561 450 104 52 27 27 19 2 4 52 71 110 56 10 13 95 133 78 135 73 6 0 8 37 24 26 58 85 332 258 207 146 162 176 55 2
2802 2709 2600 2489 2370 2210 2045 1861 1661 1464 1296 990 720 409 442 508 508 430 372 514 440 364 330 286 330 543 620 689 703 1168 1710 1873 1818 1560 1043 913 887 850 830 901 1000 992 1010 999 944 873 823 714 618 506 142 129 93 61 30 8 4 16 11 0 0 0 2 8 6 0 26 163 26 10 15 51 161 136 66 39 71 119 105 98 110 137 38 2 0
2942 2757 2681 2600 2513 2399 2285 2138 2005 1849 1570 1244 868 640 517 504 467 338 248 383 382 494 346 346 452 566 694 776 892 816 896 845 776 932 1027 688 521 723 841 884 896 961 959 885 814 790 761 703 631 593 528 462 167 104 81 80 20 1 0 17 26 87 111 103 29 2 317 528 178 140 20 17 136 105 91 153 123 63 72 40 25 51 28 8 1
3199 3043 2850 2763 2694 2620 2537 2431 2270 2010 1753 1536 1263 991 814 637 466 319 529 586 630 641 554 550 672 804 887 700 918 977 1000 1446 2038 988 682 376 156 170 258 326 489 512 395 387 418 430 507 526 485 450 420 201 48 41 103 111 12 9 0 77 6 2 6 53 192 200 13 143 324 273 17 32 115 57 10 11 9 13 53 99 132 159 126 59 9
3317 3220 3112 2992 2893 2841 2746 2518 2308 2246 2181 2042 1791 1523 1181 952 788 524 587 632 648 690 684 824 864 833 729 816 896 962 968 908 684 404 475 504 234 392 509 581 589 581 574 528 506 521 526 579 607 632 684 585 471 394 336 249 207 404 310 91 79 203 236 346 358 259 353 365 294 52 3 12 3 0 3 12 21 86 160 231 160 102 87 54 23
3475 3379 3284 3192 3082 2931 2781 2650 2573 2497 2455 2248 2026 1824 1486 1248 668 571 639 660 684 696 678 780 803 771 714 799 836 857 1028 915 792 684 561 302 170 166 351 909 1037 924 821 796 795 936 945 863 757 660 788 867 954 1040 912 749 575 446 253 74 12 78 298 466 270 48 38 66 55 6 0 0 6 19 53 66 90 128 162 162 85 41 32 2 0
3527 3450 3365 3251 3138 2999 2870 2748 2689 2639 2512 2296 2079 1865 1519 1014 477 710 438 419 374 518 564 657 646 730 670 695 761 834 709 710 632 496 265 327 330 298 571 930 1336 1388 1260 1108 1018 1031 935 892 832 822 834 950 1002 844 637 593 532 412 342 223 30 0 0 24 0 0 0 7 44 46 9 4 20 18 2 0 0 0 2 3 3 0 0 0 0
3524 3420 3313 3197 3113 3015 2914 2805 2734 2653 2472 2221 1937 1689 1359 948 853 700 578 322 425 353 353 454 477 381 369 534 552 458 454 442 366 310 365 473 446 680 1017 1255 1334 1329 1307 1296 1269 1098 905 881 819 813 834 839 736 618 589 533 433 442 446 324 0 17 94 0 0 0 0 13 37 39 3 0 0 0 0 0 0 0 0 0 0 0 0 0 0
3512 3429 3335 3238 3147 3054 2968 2890 2755 2583 2384 2075 1809 1606 1313 1208 1026 729 547 538 476 579 526 227 249 509 1030 1100 665 505 543 497 115 157 361 498 734 1011 1187 1329 1304 1260 1396 1299 988 968 961 864 644 485 474 464 391 351 333 308 309 332 380 362 0 0 0 0 0 8 10 94 242 44 0 4 0 0 0 0 0 0 0 0 0 0 0 0 0
3508 3401 3321 3258 3185 3103 3013 2920 2746 2477 2235 1979 1776 1547 1456 1366 975 642 720 571 556 380 561 538 498 418 309 819 1137 531 450 210 166 344 522 741 1072 1290 1362 1336 1315 1244 1054 705 656 658 520 487 453 385 363 326 333 350 275 12 0 0 0 0 0 0 169 133 34 0 1 37 90 48 9 0 0 0 0 0 0 0 0 0 0 0 0 0 0
Wind_Speed
10 11 10 11 10 12 10 10 13 14 12 14 13 13 12 13 14 13 14 14 15 15 16 17 18 20 20 20 19 18 15 16 13 14 13 13 14 16 20 20 20 20 20 20 21 21 20 20 18 17 17 16 13 12 13 13 12 9 4 5 7 8 9 8 9 9 9 9 9 8 7 7 6 5 4 4 5 5 6 6 7 7 7 7 6
9 11 10 10 10 10 10 12 13 11 10 10 12 11 11 10 11 12 12 12 13 15 16 17 16 17 20 18 20 18 17 16 17 16 13 13 14 15 20 20 20 20 20 20 21 21 22 21 20 18 16 13 14 17 18 18 16 13 9 7 8 8 7 9 10 10 10 10 10 9 8 7 6 5 5 4 4 5 5 6 6 7 8 7 6
10 10 10 9 10 11 12 11 9 8 8 8 9 10 11 12 13 12 12 13 13 14 14 14 13 12 15 19 18 18 18 17 18 17 15 15 15 15 16 22 20 20 19 19 19 20 21 21 22 20 16 15 18 16 14 13 13 14 15 14 9 6 5 6 8 9 10 9 9 9 9 8 7 6 6 5 5 5 5 5 5 6 7 7 8
8 7 8 9 10 10 10 9 9 9 8 9 10 11 12 12 12 13 14 15 13 12 12 13 11 11 nan 14 14 16 18 18 18 18 17 16 15 14 15 15 20 20 20 20 18 17 19 20 22 24 22 23 22 18 18 20 18 18 20 19 16 11 8 4 5 9 8 9 9 8 9 9 8 7 6 6 5 5 5 4 4 4 6 6 7
7 6 7 9 9 9 8 9 10 10 11 11 10 11 11 11 12 13 14 12 12 12 11 11 11 nan nan nan nan 16 16 16 17 20 20 18 17 16 15 15 14 19 20 20 19 17 16 18 21 25 29 25 23 23 24 23 23 22 21 20 19 15 12 9 5 5 9 9 7 7 7 7 7 7 6 5 5 4 4 4 4 4 3 5 5
7 6 6 8 9 11 10 10 10 10 11 12 12 12 14 13 13 13 13 13 13 12 12 11 12 nan nan nan nan nan 16 17 15 20 20 20 18 16 16 15 14 14 14 18 19 18 18 18 19 21 28 29 26 23 23 23 23 22 21 20 20 19 17 14 10 8 6 8 11 7 5 5 7 6 5 5 5 4 3 3 4 4 3 3 4
8 9 8 8 8 10 11 11 11 10 12 13 13 12 14 15 15 14 12 11 13 13 11 8 nan nan nan 10 9 nan nan nan 16 17 20 20 19 18 15 15 15 13 14 14 17 19 19 19 19 17 18 23 26 23 22 22 22 22 22 22 21 20 19 17 14 11 9 5 7 10 8 7 6 5 5 5 5 4 3 3 3 4 4 3 4
9 8 9 9 8 11 11 11 12 12 12 12 13 13 14 15 16 16 13 10 10 nan 9 11 10 9 10 10 9 8 8 7 8 13 18 19 19 19 17 15 13 10 12 9 8 14 21 20 19 17 16 15 22 22 21 20 20 21 22 22 22 20 19 19 18 15 11 7 3 5 8 9 9 7 6 5 5 4 4 3 2 2 4 5 5
8 9 9 9 10 11 11 12 11 12 12 13 12 14 15 15 13 14 16 12 nan 10 10 10 10 9 9 11 8 11 10 10 10 10 10 14 15 17 16 16 17 17 13 15 14 13 17 20 19 16 16 16 19 22 21 20 19 19 20 20 19 19 18 17 16 15 14 12 8 4 4 5 8 9 8 6 6 5 5 3 2 2 2 3 4
9 9 10 10 10 9 13 13 12 12 13 12 12 12 15 17 15 13 14 nan 12 13 12 11 11 9 9 11 10 11 10 10 11 11 13 13 13 16 18 15 14 12 14 12 11 5 12 18 20 20 19 18 21 22 23 21 19 19 18 17 17 16 16 15 15 14 13 11 10 10 8 7 7 7 9 9 8 7 7 7 5 3 1 1 1
9 10 11 10 14 14 15 15 14 14 14 13 14 16 15 15 nan nan 12 14 13 10 12 12 10 9 10 12 12 14 12 10 11 12 13 15 15 14 17 17 15 15 13 15 17 14 14 15 15 15 17 19 20 20 20 19 17 16 16 15 14 13 13 14 14 14 14 15 13 12 11 9 9 8 7 9 11 11 9 8 5 3 2 1 1
10 10 13 14 15 16 17 17 16 15 15 15 16 16 17 16 16 nan nan 12 11 11 11 11 10 10 9 9 11 13 13 11 11 12 14 16 17 16 17 17 17 15 14 13 15 14 14 14 14 15 15 17 20 19 18 17 17 16 16 16 13 12 12 11 10 12 12 13 11 10 9 8 8 9 8 7 8 11 11 9 6 6 4 2 2
12 13 15 16 16 17 19 18 18 17 16 18 17 17 nan nan nan 14 14 12 10 11 10 12 12 9 10 12 11 11 11 12 12 11 15 18 17 17 17 15 15 15 14 13 14 15 14 15 15 15 16 15 18 19 17 16 16 16 16 15 12 10 10 10 11 10 10 10 11 10 10 10 10 10 9 8 7 8 11 12 10 8 7 5 3
14 14 16 18 17 19 19 18 19 19 18 17 17 16 14 nan 15 13 12 12 11 11 11 12 10 12 11 12 12 9 11 11 11 12 16 17 18 16 15 16 15 13 14 14 14 14 15 15 15 15 14 15 15 14 15 15 16 20 19 16 13 9 8 9 10 11 11 10 9 9 9 10 11 10 8 8 7 6 8 9 11 11 10 9 9
16 17 18 19 19 20 19 19 19 18 17 17 18 18 17 16 17 17 14 13 13 12 13 13 12 11 12 15 13 13 12 11 11 12 14 nan nan nan nan nan nan 16 16 14 13 13 13 15 16 15 14 14 14 14 14 15 16 19 17 14 12 11 11 12 13 14 13 13 12 11 11 11 11 11 10 9 7 6 6 7 9 12 13 13 11
18 17 17 19 19 20 19 19 19 17 18 nan 18 19 18 nan nan 18 19 16 14 15 15 14 13 14 11 14 14 15 14 12 11 11 nan nan nan nan nan nan nan nan nan 16 15 13 13 14 16 16 15 14 13 13 12 11 16 16 15 13 12 11 12 13 14 15 16 17 18 17 15 14 13 12 11 11 9 7 6 6 7 9 12 14 14
19 19 17 20 19 20 19 20 19 18 17 18 17 18 nan nan 21 21 20 19 17 18 16 17 16 15 16 15 13 14 14 14 13 11 11 nan nan nan nan nan nan nan nan nan 16 nan 14 13 15 15 15 15 14 13 12 12 13 11 12 14 13 13 14 14 16 16 17 17 17 16 16 16 16 15 14 13 11 10 9 8 7 7 9 12 13
20 19 18 21 21 20 20 20 18 18 nan nan nan 18 20 21 22 22 21 20 21 19 17 16 16 16 16 nan nan 16 16 13 17 14 11 13 nan nan nan nan nan nan nan nan 17 17 16 nan nan 16 15 15 14 14 12 nan 12 nan nan nan nan nan nan nan 16 17 18 18 17 15 14 14 13 14 15 16 15 14 12 11 10 9 9 10 11
21 21 20 22 22 21 22 21 19 19 18 19 20 21 nan nan 22 23 22 20 21 20 18 17 16 16 16 15 17 16 18 17 15 15 nan nan 14 nan nan nan nan nan nan nan nan nan nan nan nan nan 16 15 15 14 nan nan 14 14 15 15 nan nan nan nan nan 17 18 nan nan 16 14 13 13 13 13 12 12 13 15 16 16 16 13 12 11
21 21 23 23 22 21 21 20 20 nan 19 20 20 20 20 21 24 23 23 22 21 20 20 18 19 nan 18 nan 17 16 17 18 18 18 nan nan nan nan nan nan nan nan nan nan nan nan nan nan nan nan nan nan nan nan nan nan nan nan 14 nan nan nan nan nan nan 18 nan nan nan nan 16 15 14 14 12 12 11 11 12 13 14 17 18 18 16
21 22 24 23 22 20 19 20 20 19 19 20 19 19 21 23 22 23 22 21 21 20 21 20 nan nan nan nan 18 nan 16 nan nan nan nan nan nan nan nan nan nan nan nan nan nan nan nan nan nan nan nan nan nan nan nan nan nan nan 16 20 nan nan nan nan nan nan nan nan nan nan 17 16 16 15 15 14 13 12 12 12 13 14 15 16 17
20 21 23 22 22 20 19 20 21 20 20 nan nan 20 21 22 23 23 22 22 21 21 21 21 23 22 nan nan 20 18 nan 17 17 nan nan 20 nan nan nan nan nan nan nan nan nan nan nan nan nan nan nan nan nan nan nan nan nan nan 18 23 nan nan nan nan nan nan nan nan nan nan nan nan 17 16 16 16 15 15 14 14 13 13 14 16 18
19 20 23 22 22 21 20 20 20 21 20 nan 20 nan 23 24 23 23 23 23 22 21 22 22 nan nan nan nan nan nan 20 nan nan nan nan nan nan nan nan nan nan nan nan nan nan nan nan nan nan nan nan nan nan nan nan nan 20 nan 25 26 25 nan nan nan nan nan nan nan nan nan nan nan nan 18 18 18 18 18 17 16 16 15 14 15 16
19 19 20 21 21 21 21 20 20 20 20 nan 21 nan nan 23 25 25 25 25 24 23 24 nan 22 nan nan nan nan nan 21 nan 21 22 nan nan nan nan nan nan nan nan nan nan nan nan nan nan nan nan nan nan nan nan nan nan nan 27 25 27 26 26 25 25 26 nan nan nan nan nan nan nan nan nan nan nan nan nan nan nan nan nan nan 15 16
18 19 19 21 21 22 22 22 22 22 22 22 21 22 nan 24 25 26 26 26 25 25 26 25 23 nan 23 nan nan nan 20 21 nan 24 23 nan nan nan nan nan nan nan 11 nan nan nan nan nan nan nan 12 nan 14 nan nan nan 20 26 28 26 29 27 26 26 27 28 nan nan nan nan nan nan nan nan nan nan nan nan nan nan nan nan nan nan nan
19 19 19 20 20 22 24 24 24 24 25 24 23 22 24 nan 26 28 28 27 27 27 26 25 24 24 26 nan 24 23 nan 24 nan nan nan nan nan nan nan nan nan nan nan nan 11 nan nan nan nan nan nan nan nan nan 21 nan 24 27 31 nan 28 29 27 27 27 27 28 29 nan 27 nan nan nan nan nan nan nan nan nan nan nan nan nan nan nan
18 17 19 20 22 23 24 25 24 25 25 24 23 21 24 27 27 29 29 29 29 28 26 26 25 25 27 nan 26 24 24 27 nan nan nan nan nan 26 nan nan nan nan nan 18 17 nan nan nan nan nan 19 nan nan nan 25 nan 27 29 32 29 nan 29 28 27 26 27 27 27 27 27 25 nan nan nan nan nan nan nan nan nan nan nan nan nan nan
16 18 18 22 23 23 21 22 24 24 24 25 24 23 24 27 29 29 29 29 30 28 26 25 25 26 26 27 28 25 25 24 nan 26 nan nan nan 28 nan nan nan nan nan nan nan nan nan nan nan 20 24 26 26 28 28 28 28 30 31 nan nan nan 28 27 28 29 29 27 27 26 25 23 22 22 nan nan nan nan nan nan nan nan nan nan nan
16 18 19 21 23 23 21 22 24 24 24 26 25 25 25 26 29 30 31 31 32 30 27 25 24 25 25 28 29 28 26 27 28 29 29 29 29 27 nan nan nan nan nan nan nan nan nan 23 nan nan 24 26 nan 27 29 nan 27 28 27 28 nan nan nan 30 31 33 32 29 28 27 nan nan nan nan 24 25 24 23 nan nan nan nan nan nan nan
17 16 18 21 22 24 23 23 25 26 27 26 27 28 27 28 29 30 32 33 34 32 29 27 26 25 26 27 29 29 27 28 29 31 32 32 30 28 27 26 28 nan nan nan nan nan nan nan nan nan nan nan 25 25 nan 26 26 28 27 nan nan nan nan nan nan 37 35 33 30 nan nan nan nan nan nan nan nan nan 23 21 20 20 21 nan nan
17 18 18 21 22 23 24 25 26 28 28 28 29 29 29 30 30 31 31 33 34 34 32 30 27 27 27 27 27 28 27 27 29 30 30 29 28 27 26 25 24 nan nan nan nan nan nan nan nan 26 nan nan nan nan 25 26 27 28 28 31 nan 35 37 nan nan nan 35 33 nan nan nan nan nan nan nan nan nan nan nan 22 19 19 19 19 18
17 20 20 23 25 25 25 27 28 29 30 30 31 30 30 31 32 33 33 34 34 34 33 31 29 29 28 26 27 28 28 28 29 29 27 26 26 27 26 25 25 25 26 27 nan nan nan 27 nan nan nan nan nan nan nan nan 26 27 29 nan 33 38 39 39 38 37 35 nan nan nan nan nan nan nan nan nan nan nan nan nan nan nan nan 19 20
18 20 22 24 27 28 29 29 30 31 32 31 31 31 31 32 33 34 35 37 37 35 35 33 31 30 28 28 29 31 31 30 29 28 27 27 27 27 26 26 25 26 27 26 25 22 nan 26 26 25 25 nan nan nan nan 26 26 25 26 nan nan 35 39 nan nan 36 34 31 nan nan nan nan nan nan nan nan nan nan 24 23 nan nan nan nan nan
18 20 23 25 27 29 30 31 31 32 33 33 33 33 34 35 35 34 36 38 38 38 36 34 31 29 28 29 30 32 32 32 29 28 27 28 28 27 27 28 27 27 27 28 25 25 23 nan 26 nan 26 27 nan nan nan nan nan nan nan nan 32 35 nan nan nan nan 38 36 nan nan nan nan nan nan nan nan nan nan nan nan nan nan nan nan nan
17 21 24 26 28 30 31 32 32 32 34 35 35 37 38 38 37 36 37 39 40 39 37 35 32 29 28 30 33 34 33 32 30 29 29 29 30 29 27 28 29 29 29 29 29 27 nan nan nan nan 27 28 nan nan 28 29 28 nan nan nan nan 35 37 nan nan nan nan nan nan nan nan nan nan nan nan nan nan nan nan nan nan nan nan nan nan
19 21 25 27 28 30 32 33 34 35 37 38 39 40 41 40 39 37 36 37 39 40 38 36 34 31 30 31 33 35 34 34 32 31 31 30 30 29 29 29 30 30 30 31 31 nan nan nan nan nan nan nan nan nan nan 27 nan nan nan nan nan nan nan nan nan nan nan nan nan nan nan nan nan nan nan nan nan nan nan nan nan nan nan nan nan
20 22 24 26 28 30 32 34 36 38 40 42 43 43 41 39 39 37 36 36 38 41 41 38 36 33 31 32 33 35 36 35 34 34 33 32 30 30 30 30 31 32 32 32 31 30 nan nan nan nan nan nan nan nan nan nan nan nan nan nan nan nan nan nan nan nan nan nan nan nan nan nan nan nan nan nan nan nan nan nan nan nan nan nan nan
20 22 25 26 28 31 32 35 37 39 41 43 45 44 43 44 43 39 37 37 39 42 43 41 38 34 32 32 33 34 36 37 35 35 35 34 33 32 32 32 34 35 34 32 31 30 28 nan nan nan nan nan nan nan nan 28 nan nan nan nan nan nan 40 38 nan 39 41 nan nan nan nan nan nan nan nan nan nan nan nan nan nan nan nan nan nan
20 22 25 29 29 32 34 35 38 40 42 44 46 45 44 45 46 44 41 39 39 42 44 44 41 37 33 32 32 34 37 38 37 36 36 35 34 33 33 34 36 37 36 34 32 31 30 29 nan nan nan nan nan nan nan nan 28 nan nan nan nan nan nan nan nan nan nan nan nan nan nan nan nan nan nan nan nan nan nan nan nan nan nan nan nan
22 25 28 31 32 33 35 37 39 40 42 45 49 50 49 49 48 47 46 44 43 43 45 45 44 40 36 35 35 36 38 39 38 36 37 36 37 36 36 36 37 37 35 33 33 33 32 32 32 32 nan nan nan nan 31 nan nan nan nan 41 nan nan nan nan nan nan nan nan nan nan nan nan nan nan nan nan nan nan nan nan nan nan nan nan nan
24 27 29 31 33 35 37 40 41 42 44 47 50 53 53 52 50 50 50 49 47 46 46 45 44 42 38 35 35 37 38 40 39 37 37 38 40 39 38 38 36 36 34 34 34 34 34 35 34 37 36 35 nan nan nan nan nan nan nan 47 43 nan nan nan nan nan 43 44 nan nan nan 44 nan nan nan nan nan nan nan nan nan nan nan nan nan
26 28 30 32 34 37 39 41 42 43 45 47 53 61 59 56 56 53 51 50 48 47 47 44 41 41 39 35 35 38 39 39 39 38 39 41 42 41 40 41 39 38 36 35 35 35 36 36 36 38 38 37 nan nan nan nan nan nan nan nan 47 nan nan nan nan 42 nan 47 nan nan nan nan nan nan nan nan nan 46 45 45 44 43 40 nan nan
26 28 30 32 34 35 37 39 41 42 45 48 58 62 63 62 58 54 51 49 47 47 48 44 39 38 36 34 36 36 35 36 37 37 38 40 41 41 41 43 43 43 40 38 37 38 37 37 38 41 40 37 nan nan nan nan nan nan nan nan nan nan nan nan nan nan nan 49 nan nan nan nan 49 45 nan nan nan 43 43 nan 37 34 nan nan nan
26 28 30 32 34 36 36 37 40 42 44 51 60 62 62 61 57 51 47 46 46 47 46 42 37 35 34 36 38 38 37 36 37 39 39 39 41 43 43 41 41 40 41 42 40 38 39 40 42 42 39 36 36 39 nan nan nan nan nan nan nan nan 45 44 nan nan 49 51 48 46 nan nan 44 41 nan 41 41 nan nan nan nan nan nan nan nan
28 29 31 34 36 37 38 40 41 44 46 54 60 63 62 61 58 51 46 45 45 45 44 41 37 36 36 38 37 36 35 36 39 42 41 38 35 37 41 40 38 35 32 33 37 39 42 43 42 37 37 37 nan nan 41 42 nan nan nan nan nan nan nan nan 48 48 nan 48 46 46 nan nan 41 nan nan nan nan nan nan nan 31 30 29 nan nan
31 31 32 36 38 40 40 41 44 46 47 55 61 63 64 65 59 51 43 42 41 42 41 40 39 38 37 40 40 39 38 40 44 45 44 45 43 43 44 42 36 30 29 32 36 38 41 41 38 35 37 43 41 41 41 42 42 39 42 nan nan 45 44 46 48 48 47 48 44 nan nan nan nan nan nan nan nan nan 37 34 31 30 nan nan nan
34 35 35 38 40 41 42 43 44 47 47 58 61 63 64 63 55 42 38 38 38 39 40 40 40 40 41 41 41 40 42 45 45 48 47 45 44 43 42 37 31 29 31 33 38 40 39 38 37 38 39 42 39 36 38 42 40 40 44 nan nan nan 45 48 47 nan nan nan nan nan nan nan nan nan nan nan nan 35 36 33 nan nan nan nan nan
35 37 36 39 42 43 44 45 46 48 50 60 61 62 62 63 55 43 39 39 39 39 40 42 42 43 44 43 43 45 42 43 47 50 48 47 47 43 38 31 29 31 34 35 35 35 36 39 41 41 41 41 41 41 41 42 43 45 47 47 nan nan nan nan nan nan nan nan nan nan nan nan nan nan nan nan nan nan nan nan nan nan nan nan nan
39 39 40 41 43 44 45 46 48 49 52 58 62 63 66 71 62 49 45 43 43 43 43 43 43 43 42 44 45 43 42 41 43 44 44 47 42 38 34 32 34 36 36 37 35 33 33 36 39 41 41 41 41 41 41 41 44 46 48 47 nan nan nan nan nan nan nan nan nan nan nan nan nan nan nan nan nan nan nan nan nan nan nan nan nan
42 42 44 46 46 46 48 49 50 51 53 57 65 66 69 69 63 54 49 47 44 44 45 46 47 47 45 45 42 40 40 40 41 41 38 36 34 33 35 36 38 40 40 40 38 38 39 41 41 40 39 38 38 38 39 40 42 48 52 47 nan nan nan nan nan nan nan nan 29 nan nan nan nan nan nan nan nan nan nan nan nan nan nan nan nan
45 47 49 49 48 48 50 50 53 55 54 56 63 66 66 64 59 52 51 49 47 47 48 49 49 50 47 42 42 42 44 39 36 36 37 40 38 38 39 40 40 41 42 43 43 44 45 44 43 43 42 41 42 43 42 nan nan nan nan nan nan nan 40 33 nan nan nan nan nan nan nan nan nan nan nan nan nan nan nan nan nan nan nan nan nan
Wind_Direction
64 59 52 47 40 46 47 52 54 50 41 42 35 31 34 34 33 29 34 25 20 24 30 31 25 20 24 23 19 19 18 6 3 21 21 8 2 6 8 10 9 8 5 0 1 1 2 359 353 342 326 320 320 319 328 329 335 328 301 265 281 282 284 293 304 312 319 320 323 327 327 328 333 343 350 359 356 359 0 360 356 355 359 11 10
53 55 43 44 37 42 40 47 42 45 46 48 38 25 30 31 31 30 21 23 24 26 26 30 30 16 19 14 14 12 8 2 359 6 2 359 360 0 10 9 9 8 4 2 360 359 358 357 358 352 334 323 350 355 352 351 352 332 300 250 219 229 262 298 307 315 321 321 321 320 321 322 331 338 343 351 1 0 4 1 360 358 356 3 7
53 43 40 32 30 32 35 30 25 35 41 43 35 17 23 25 30 19 13 19 23 29 28 31 28 28 18 9 6 360 357 355 359 357 356 2 3 359 2 6 6 5 4 3 1 357 354 354 354 344 322 354 13 0 349 349 342 333 330 337 346 329 279 259 264 296 306 305 312 315 319 323 330 339 342 347 356 358 4 5 3 2 359 2 3
47 35 21 23 26 23 23 22 22 26 31 29 23 20 21 26 19 10 12 15 18 23 25 29 23 28 nan 348 0 3 359 358 354 357 359 1 360 354 354 355 2 2 2 3 2 360 355 353 351 342 342 13 15 6 4 3 0 347 347 345 352 355 355 337 283 254 266 295 296 306 315 322 327 335 340 343 350 356 355 359 4 6 4 4 2
44 32 23 21 22 19 25 24 20 17 20 21 19 17 14 12 14 11 13 14 12 24 17 24 14 nan nan nan nan 1 2 358 354 350 353 355 357 353 350 352 351 359 358 360 0 360 358 356 353 345 347 6 12 12 14 12 13 8 3 360 1 3 4 3 340 278 244 241 268 289 302 311 319 324 331 337 340 349 353 350 353 4 12 3 5
18 29 24 19 14 14 7 13 11 12 11 10 11 10 10 6 10 8 16 8 10 17 16 12 8 nan nan nan nan nan 353 358 357 351 349 352 355 351 352 352 346 343 344 355 356 356 359 357 358 354 349 357 3 17 20 17 13 11 12 13 14 16 17 12 3 345 308 250 236 247 261 294 310 311 316 324 328 339 343 342 341 346 359 14 12
12 11 20 22 21 360 357 2 4 3 355 0 1 1 357 359 359 359 6 359 359 5 357 8 nan nan nan 355 354 nan nan nan 351 356 345 352 349 352 348 349 345 340 340 338 351 356 354 358 0 354 357 350 355 4 15 16 13 11 9 13 19 24 25 22 14 3 353 310 252 241 237 239 252 285 303 311 314 316 322 333 336 334 342 359 15
10 8 10 16 11 355 351 351 351 351 353 350 349 353 354 346 353 350 347 347 345 nan 340 347 335 348 347 353 339 337 340 329 333 355 352 346 348 346 349 344 324 340 334 311 359 346 352 354 355 354 347 342 343 353 5 10 10 9 9 8 11 17 23 25 22 15 11 10 319 260 254 247 243 249 260 279 292 297 307 313 315 319 336 343 3
6 7 3 6 353 352 346 347 348 344 343 345 342 346 342 344 342 335 335 346 nan 339 341 333 335 347 345 322 335 328 321 330 333 345 346 342 336 340 336 335 340 348 329 349 341 350 343 347 346 343 340 330 330 342 355 4 9 10 5 4 6 8 12 20 25 27 21 16 7 347 306 281 266 255 247 247 250 257 262 262 280 317 328 337 349
4 359 352 1 325 347 338 337 338 338 336 335 339 329 330 324 323 334 334 nan 338 337 339 333 339 345 337 325 338 323 323 333 334 344 328 327 333 329 333 326 319 334 340 330 297 326 322 331 337 338 334 342 342 342 348 356 4 5 360 357 358 1 5 10 16 20 26 27 24 16 1 340 318 290 267 252 242 239 244 242 239 241 218 158 359
358 351 347 341 333 345 332 332 332 332 331 324 314 318 313 316 nan nan 330 333 332 341 338 336 332 331 329 338 329 329 331 336 339 340 339 332 329 328 321 326 326 331 335 328 325 325 314 313 317 322 327 342 339 339 343 346 353 356 355 353 355 355 353 0 7 10 12 17 20 19 13 4 352 339 313 277 253 240 242 246 230 226 244 266 199
349 345 335 328 327 330 331 331 331 329 324 309 316 310 315 313 318 nan nan 322 320 327 313 317 319 319 330 323 333 325 329 339 342 350 340 334 331 332 326 326 326 328 324 319 311 310 308 309 310 307 310 318 326 329 329 336 342 345 345 347 346 345 353 357 355 1 7 8 7 8 10 12 6 354 343 314 269 249 248 254 255 244 240 248 246
341 341 331 326 328 328 329 331 332 325 321 318 319 317 nan nan nan 320 315 309 313 308 312 314 316 317 322 323 327 325 332 335 345 346 335 343 332 330 332 320 319 324 320 309 311 311 310 308 305 303 305 308 310 312 314 320 320 326 331 337 340 343 353 345 345 340 345 344 346 352 353 353 356 357 350 340 310 268 252 253 257 263 263 246 230
339 334 325 323 326 326 327 320 317 319 318 319 312 314 319 nan 317 308 311 310 312 311 297 308 305 317 319 316 319 319 328 328 341 344 346 335 328 324 314 321 322 312 302 309 310 311 312 312 308 306 305 303 301 298 299 300 307 311 314 320 326 337 337 328 325 329 337 339 334 332 327 323 329 338 340 341 335 316 287 267 259 256 254 255 246
335 331 327 327 326 321 323 317 314 317 316 316 320 327 327 321 317 317 312 315 318 312 294 306 317 320 319 312 319 318 321 316 329 325 323 nan nan nan nan nan nan 303 307 308 306 307 311 312 309 307 303 299 302 305 305 308 308 304 302 299 301 309 313 313 306 305 304 312 316 315 317 318 321 323 326 328 328 325 316 295 271 254 250 250 249
336 332 332 329 327 327 322 314 318 315 315 nan 326 333 328 nan nan 324 320 316 317 317 313 307 311 307 307 317 322 316 316 313 319 333 nan nan nan nan nan nan nan nan nan 305 303 298 299 303 309 313 305 299 300 301 304 311 305 305 303 298 289 289 300 306 309 303 297 298 299 302 305 310 311 311 313 312 306 303 299 299 290 270 254 250 252
335 337 336 332 330 330 324 320 318 316 314 318 327 329 nan nan 331 323 320 322 314 315 314 309 308 310 312 305 305 303 315 321 312 321 301 nan nan nan nan nan nan nan nan nan 310 nan 309 300 297 305 304 305 301 300 301 295 296 296 292 290 286 286 290 299 305 305 301 297 295 295 295 296 295 299 300 296 292 291 288 279 270 268 262 255 250
334 338 337 332 334 333 328 324 320 317 nan nan nan 320 324 323 331 322 316 314 316 310 310 307 306 302 302 nan nan 314 313 312 301 312 311 309 nan nan nan nan nan nan nan nan 319 320 319 nan nan 307 309 310 309 308 305 nan 300 nan nan nan nan nan nan nan 296 299 298 292 289 290 293 294 292 288 289 296 294 289 289 286 281 273 270 267 256
334 338 335 336 339 335 332 330 327 323 320 317 321 322 nan nan 321 314 317 311 305 307 306 308 297 293 292 294 296 302 308 303 307 306 nan nan 309 nan nan nan nan nan nan nan nan nan nan nan nan nan 316 316 315 315 nan nan 312 315 314 307 nan nan nan nan nan 295 296 nan nan 283 283 285 289 291 290 294 292 288 280 273 267 264 262 261 256
333 335 336 338 339 338 336 330 326 nan 321 322 322 327 321 315 317 318 314 311 310 311 307 299 303 nan 293 nan 291 295 296 297 303 308 nan nan nan nan nan nan nan nan nan nan nan nan nan nan nan nan nan nan nan nan nan nan nan nan 318 nan nan nan nan nan nan 297 nan nan nan nan 283 282 282 287 287 286 287 285 282 278 270 264 257 252 249
331 329 335 336 337 338 334 328 328 327 325 326 326 324 322 321 318 315 316 314 312 312 307 309 nan nan nan nan 292 nan 297 nan nan nan nan nan nan nan nan nan nan nan nan nan nan nan nan nan nan nan nan nan nan nan nan nan nan nan 332 333 nan nan nan nan nan nan nan nan nan nan 287 284 284 284 286 287 287 286 283 280 275 267 261 255 247
329 327 331 333 332 333 330 327 329 329 328 nan nan 328 326 322 323 322 320 318 315 311 312 314 308 306 nan nan 293 293 nan 296 302 nan nan 307 nan nan nan nan nan nan nan nan nan nan nan nan nan nan nan nan nan nan nan nan nan nan 340 339 nan nan nan nan nan nan nan nan nan nan nan nan 283 281 283 286 286 286 283 281 278 274 267 258 249
326 326 328 328 329 330 331 329 329 330 330 nan 329 nan 328 326 324 321 319 318 318 316 312 313 nan nan nan nan nan nan 303 nan nan nan nan nan nan nan nan nan nan nan nan nan nan nan nan nan nan nan nan nan nan nan nan nan 341 nan 341 339 337 nan nan nan nan nan nan nan nan nan nan nan nan 279 278 280 283 283 282 281 279 276 271 265 258
321 323 323 327 327 330 331 329 328 326 330 nan 326 nan nan 322 321 320 319 318 317 314 315 nan 314 nan nan nan nan nan 301 nan 308 307 nan nan nan nan nan nan nan nan nan nan nan nan nan nan nan nan nan nan nan nan nan nan nan 341 335 339 334 333 332 330 327 nan nan nan nan nan nan nan nan nan nan nan nan nan nan nan nan nan nan 270 264
319 323 324 329 329 329 329 327 327 326 327 327 327 329 nan 324 323 320 318 315 316 313 312 312 313 nan 315 nan nan nan 302 305 nan 301 302 nan nan nan nan nan nan nan 297 nan nan nan nan nan nan nan 326 nan 327 nan nan nan 328 335 332 333 334 331 332 331 327 325 nan nan nan nan nan nan nan nan nan nan nan nan nan nan nan nan nan nan nan
323 324 326 326 331 331 328 330 331 331 332 330 330 328 327 nan 328 327 324 321 313 309 308 309 310 311 306 nan 303 306 nan 301 nan nan nan nan nan nan nan nan nan nan nan nan 289 nan nan nan nan nan nan nan nan nan 325 nan 324 330 328 nan 330 334 335 335 332 329 327 322 nan 315 nan nan nan nan nan nan nan nan nan nan nan nan nan nan nan
324 323 323 323 329 331 331 335 337 338 338 338 337 330 327 329 332 336 333 330 326 319 313 309 308 308 304 nan 306 299 297 301 nan nan nan nan nan 303 nan nan nan nan nan 294 289 nan nan nan nan nan 308 nan nan nan 314 nan 320 323 321 317 nan 332 335 338 338 337 332 327 320 316 311 nan nan nan nan nan nan nan nan nan nan nan nan nan nan
315 321 322 324 328 335 334 337 341 343 343 345 343 338 334 331 336 338 338 336 339 336 329 319 313 310 309 308 307 305 296 293 nan 296 nan nan nan 296 nan nan nan nan nan nan nan nan nan nan nan 287 293 299 304 305 307 309 309 321 323 nan nan nan 336 339 338 337 335 330 321 312 306 302 301 303 nan nan nan nan nan nan nan nan nan nan nan
317 324 322 325 329 335 337 334 339 343 341 344 345 345 341 338 337 338 339 338 340 344 339 333 328 319 316 315 316 312 300 290 288 291 293 294 295 293 nan nan nan nan nan nan nan nan nan 289 nan nan 286 291 nan 297 300 nan 309 313 314 319 nan nan nan 340 336 331 329 325 318 312 nan nan nan nan 305 303 300 296 nan nan nan nan nan nan nan
326 324 324 329 333 337 337 336 336 340 343 342 344 344 341 340 338 335 336 333 337 340 340 335 333 325 318 317 316 315 308 297 296 293 292 293 290 289 289 292 297 nan nan nan nan nan nan nan nan nan nan nan 291 295 nan 306 315 317 315 nan nan nan nan nan nan 327 327 326 323 nan nan nan nan nan nan nan nan nan 294 287 285 284 279 nan nan
330 329 323 329 334 337 337 338 338 339 341 343 342 341 339 336 335 333 332 331 331 335 337 334 333 326 319 315 314 317 314 310 303 299 295 290 289 288 288 289 293 nan nan nan nan nan nan nan nan 294 nan nan nan nan 303 308 312 315 315 319 nan 331 333 nan nan nan 329 328 nan nan nan nan nan nan nan nan nan nan nan 299 292 289 285 281 277
330 331 328 331 335 338 339 340 340 340 341 342 340 337 335 334 333 331 331 330 330 331 333 332 329 327 322 317 313 315 316 314 312 307 301 294 293 294 291 291 291 295 299 304 nan nan nan 297 nan nan nan nan nan nan nan nan 307 316 310 nan 319 326 324 321 326 330 330 nan nan nan nan nan nan nan nan nan nan nan nan nan nan nan nan 283 282
330 332 334 335 337 339 340 341 343 342 340 340 338 335 332 333 333 331 329 330 331 330 330 331 328 326 325 320 318 317 314 314 314 309 302 297 294 295 294 293 293 292 295 301 305 302 nan 294 297 298 299 nan nan nan nan 301 301 303 307 nan nan 314 316 nan nan 324 329 328 nan nan nan nan nan nan nan nan nan nan 304 304 nan nan nan nan nan
330 334 338 336 336 337 339 342 343 343 340 338 338 336 336 335 335 332 331 330 330 330 328 330 330 327 324 323 323 323 319 317 316 314 308 301 295 294 295 296 296 297 297 300 303 300 297 nan 290 nan 292 295 nan nan nan nan nan nan nan nan 307 309 nan nan nan nan 322 324 nan nan nan nan nan nan nan nan nan nan nan nan nan nan nan nan nan
329 334 336 336 336 337 338 341 341 339 337 337 337 338 338 338 335 333 332 332 331 331 331 331 330 326 321 323 324 323 320 319 319 318 311 305 299 298 298 296 297 297 297 300 299 300 nan nan nan nan 292 291 nan nan 293 296 294 nan nan nan nan 307 307 nan nan nan nan nan nan nan nan nan nan nan nan nan nan nan nan nan nan nan nan nan nan
331 331 334 336 336 338 339 339 338 337 337 337 339 338 336 334 335 335 333 332 331 333 334 333 331 327 323 319 321 321 320 320 320 320 317 309 303 298 295 295 297 298 297 296 300 nan nan nan nan nan nan nan nan nan nan 291 nan nan nan nan nan nan nan nan nan nan nan nan nan nan nan nan nan nan nan nan nan nan nan nan nan nan nan nan nan
332 330 334 336 339 340 341 340 339 340 339 339 339 335 329 329 333 335 334 332 331 334 337 335 331 327 324 321 319 318 318 320 321 322 320 316 308 300 296 296 297 298 296 297 298 297 nan nan nan nan nan nan nan nan nan nan nan nan nan nan nan nan nan nan nan nan nan nan nan nan nan nan nan nan nan nan nan nan nan nan nan nan nan nan nan
337 337 338 339 341 344 343 340 340 341 338 337 335 330 330 332 334 335 336 335 333 331 335 335 333 326 323 320 318 317 317 320 321 321 321 319 310 304 299 297 298 298 299 297 296 297 297 nan nan nan nan nan nan nan nan 294 nan nan nan nan nan nan 300 298 nan 297 295 nan nan nan nan nan nan nan nan nan nan nan nan nan nan nan nan nan nan
343 342 342 342 342 341 341 339 340 339 337 334 329 327 332 333 334 338 337 335 333 331 331 333 331 326 321 318 318 318 319 320 319 321 322 319 314 308 303 300 298 297 298 298 297 298 299 300 nan nan nan nan nan nan nan nan 297 nan nan nan nan nan nan nan nan nan nan nan nan nan nan nan nan nan nan nan nan nan nan nan nan nan nan nan nan
343 342 342 343 340 337 338 338 339 338 334 331 328 331 335 337 336 336 337 333 332 332 329 328 326 323 317 314 316 318 319 317 317 317 320 322 316 310 305 299 297 296 296 296 296 297 299 300 303 303 nan nan nan nan 277 nan nan nan nan 312 nan nan nan nan nan nan nan nan nan nan nan nan nan nan nan nan nan nan nan nan nan nan nan nan nan
336 338 340 339 336 335 336 338 338 337 332 329 328 331 336 336 334 336 335 333 331 330 328 325 322 319 315 314 315 318 317 320 323 322 322 322 316 313 306 301 298 297 295 294 296 298 300 302 302 300 299 298 nan nan nan nan nan nan nan 307 305 nan nan nan nan nan 296 295 nan nan nan 291 nan nan nan nan nan nan nan nan nan nan nan nan nan
333 332 335 335 334 336 337 337 336 334 329 326 329 335 337 332 331 331 332 332 329 327 324 321 318 316 315 314 315 321 323 324 324 326 327 327 323 316 309 303 301 298 296 294 295 297 300 303 305 304 303 302 nan nan nan nan nan nan nan nan 301 nan nan nan nan 290 nan 293 nan nan nan nan nan nan nan nan nan 280 278 277 277 277 277 nan nan
330 327 329 331 332 333 335 334 334 330 326 324 329 335 337 334 329 332 333 329 326 324 323 322 319 314 313 314 311 309 313 318 319 325 326 324 320 319 314 307 302 297 293 291 292 295 300 304 306 305 306 306 nan nan nan nan nan nan nan nan nan nan nan nan nan nan nan 294 nan nan nan nan 290 289 nan nan nan 278 276 nan 274 274 nan nan nan
322 319 324 328 328 327 327 329 330 326 323 324 329 334 335 334 334 332 328 324 323 324 323 321 317 314 311 307 305 307 308 310 312 312 317 320 318 315 311 304 298 294 291 290 290 291 296 302 306 308 306 307 306 303 nan nan nan nan nan nan nan nan 289 290 nan nan 295 293 293 292 nan nan 289 289 nan 283 280 nan nan nan nan nan nan nan nan
311 317 322 321 322 322 324 327 327 323 322 324 329 333 334 334 336 332 325 325 324 322 320 319 316 313 311 307 305 305 307 314 310 303 300 294 296 302 300 292 286 284 283 285 287 292 296 303 307 309 311 308 nan nan 296 288 nan nan nan nan nan nan nan nan 297 297 nan 295 292 292 nan nan 289 nan nan nan nan nan nan nan 286 283 278 nan nan
313 315 314 317 317 320 322 324 323 320 321 323 328 331 333 333 333 328 321 321 321 321 321 319 317 315 313 308 307 307 309 302 294 297 298 295 295 294 290 289 292 291 288 294 302 306 307 306 307 311 311 307 308 299 293 292 294 295 295 nan nan 292 294 298 299 300 298 293 293 nan nan nan nan nan nan nan nan nan 285 286 288 284 nan nan nan
310 311 313 315 316 317 318 318 317 317 319 322 327 330 332 329 320 313 318 315 314 319 321 321 317 315 311 310 309 305 298 298 301 297 299 301 302 302 295 293 301 305 299 299 302 302 303 306 309 313 312 309 309 308 304 300 303 303 302 nan nan nan 301 297 296 nan nan nan nan nan nan nan nan nan nan nan nan 286 284 283 nan nan nan nan nan
301 302 306 310 313 314 315 314 313 316 315 322 326 328 326 314 314 327 325 323 323 322 321 317 315 313 312 312 305 301 302 299 300 303 303 305 308 308 301 296 302 306 304 304 305 303 304 306 309 312 313 313 312 311 309 308 306 304 301 299 nan nan nan nan nan nan nan nan nan nan nan nan nan nan nan nan nan nan nan nan nan nan nan nan nan
298 301 304 305 307 310 312 311 311 312 312 321 323 324 320 320 329 331 330 328 326 325 322 316 314 314 310 306 306 306 302 303 302 306 316 313 311 314 310 306 306 305 304 301 307 313 316 317 316 314 312 311 312 312 311 309 306 302 304 305 nan nan nan nan nan nan nan nan nan nan nan nan nan nan nan nan nan nan nan nan nan nan nan nan nan
299 301 300 301 305 309 311 310 311 311 313 321 325 325 322 326 327 329 332 330 326 320 318 317 315 311 308 308 304 304 306 304 313 320 319 317 319 321 316 312 306 303 302 300 301 303 306 310 314 317 317 316 315 315 314 315 315 308 306 310 nan nan nan nan nan nan nan nan 296 nan nan nan nan nan nan nan nan nan nan nan nan nan nan nan nan
299 301 302 303 303 306 308 308 308 308 312 321 324 318 321 324 325 327 329 326 323 320 317 314 311 308 305 309 318 314 308 316 326 329 331 323 321 320 317 309 306 303 302 300 302 303 304 306 307 308 309 313 312 310 309 nan nan nan nan nan nan nan 294 298 nan nan nan nan nan nan nan nan nan nan nan nan nan nan nan nan nan nan nan nan nan